Stations météo

réclame
Mon MeteoGroup
Gottfrieding, Allemagne (10872): Température de l'air & dewpoint: 12.01.2019 12:00:00 - 18.01.2019 12:00:00 (CET)Gottfrieding, Allemagne (10872): Température de l'air 5cm & Température de l'air -5cm: 12.01.2019 12:00:00 - 18.01.2019 12:00:00 (CET)Gottfrieding, Allemagne (10872): Température de l'air -20cm & Température de l'air -100cm: 12.01.2019 12:00:00 - 18.01.2019 12:00:00 (CET)Gottfrieding, Allemagne (10872): Vitesse du vent & gusts: 12.01.2019 12:00:00 - 18.01.2019 12:00:00 (CET)Gottfrieding, Allemagne (10872): Direction du vent: 12.01.2019 12:00:00 - 18.01.2019 12:00:00 (CET)Gottfrieding, Allemagne (10872): reduced air pressure: 12.01.2019 12:00:00 - 18.01.2019 12:00:00 (CET)Gottfrieding, Allemagne (10872): visibility: 12.01.2019 12:00:00 - 18.01.2019 12:00:00 (CET)Gottfrieding, Allemagne (10872): Ensoleillement: 12.01.2019 12:00:00 - 18.01.2019 12:00:00 (CET)Gottfrieding, Allemagne (10872): Quantités de précipitations: 12.01.2019 12:00:00 - 18.01.2019 12:00:00 (CET)
Date & Time tt [°C] td [°C] tt 5cm [°C] tt -5cm [°C] tt -20cm [°C] tt -100cm [°C] ff [km/h] ff [knt] fx [km/h] fx [knt] dd ppp [hPa] vv [km] sd [min] rr [mm]
18.01.2019 12:00:00 1,5 -2,7 2,1 1,4 2,2 4,9 9 5 28 15 W 1021,0 31 4 0,0
18.01.2019 11:00:00 1,1 -2,4 1,2 1,0 2,2 4,9 13 7 28 15 W 1021,0 26 4 0,0
18.01.2019 10:00:00 0,6 -2,5 0,1 1,0 2,2 4,9 12 6 29 15 W 1020,4 25 12 0,0
18.01.2019 09:00:00 0,4 -2,2 -0,1 1,0 2,2 4,9 13 7 29 16 WSW 1019,3 23 0 0,0
18.01.2019 08:00:00 0,5 -2,5 -0,2 1,0 2,3 4,9 13 7 24 13 WSW 1018,1 27 0 0,0
18.01.2019 07:00:00 0,5 -2,0 -0,1 1,0 2,3 4,9 12 7 34 18 W 1017,1 25 0 0,0
18.01.2019 06:00:00 0,7 -2,3 0,1 1,1 2,3 4,9 14 8 27 15 W 1015,7 41 0 0,0
18.01.2019 05:00:00 1,1 -2,1 0,2 1,2 2,3 4,9 14 7 27 15 W 1014,9 44 0 0,0
18.01.2019 04:00:00 1,6 -1,6 1,0 1,4 2,3 4,9 13 7 31 17 W 1014,3 41 0 0,0
18.01.2019 03:00:00 2,0 -1,4 1,1 1,5 2,3 4,9 12 7 27 15 WSW 1013,7 56 0 0,0
18.01.2019 02:00:00 2,6 -1,3 1,8 1,6 2,3 4,9 12 6 29 16 WSW 1013,2 59 0 0,0
18.01.2019 01:00:00 2,9 -0,8 2,0 1,7 2,3 4,9 16 8 37 20 WSW 1012,8 45 0 0,0
18.01.2019 00:00:00 2,9 -0,9 1,8 1,7 2,3 4,9 15 8 34 19 WSW 1012,3 62 0 0,0
17.01.2019 23:00:00 3,5 -0,7 2,5 1,9 2,3 4,9 20 11 41 22 W 1011,7 66 0 0,0
17.01.2019 22:00:00 4,5 0,1 3,3 1,9 2,2 4,9 15 8 37 20 WSW 1010,2 62 0 0,0
17.01.2019 21:00:00 4,9 0,3 3,5 2,0 2,2 4,9 20 11 37 20 WSW 1009,8 70 0 0,0
17.01.2019 20:00:00 5,3 0,9 3,7 2,1 2,1 4,9 16 9 34 19 WSW 1009,3 68 0 0,0
17.01.2019 19:00:00 5,5 1,2 3,7 2,1 2,1 4,9 16 9 38 20 WSW 1008,9 61 0 0,2
17.01.2019 18:00:00 5,2 2,0 3,8 2,0 2,0 4,9 14 7 31 17 WSW 1008,6 48 0 0,0
17.01.2019 17:00:00 4,9 1,9 3,3 1,9 2,0 4,9 22 12 51 28 W 1008,6 31 0 0,5
17.01.2019 16:00:00 6,6 2,2 5,0 1,3 2,0 4,9 18 10 34 19 WSW 1007,3 31 0 0,1
17.01.2019 15:00:00 7,4 2,2 5,0 0,4 2,0 4,9 16 9 32 17 WSW 1006,4 33 0 0,0
17.01.2019 14:00:00 4,4 1,8 3,0 0,3 2,0 4,9 3 2 7 4 W 1006,8 19 0 0,0
17.01.2019 13:00:00 1,8 0,6 1,6 0,3 2,0 4,9 4 2 12 6 ENE 1007,8 9 0 0,0
17.01.2019 12:00:00 1,6 0,5 1,5 0,3 2,1 4,9 6 3 14 8 NE 1008,5 8 0 0,0
17.01.2019 11:00:00 0,9 -0,4 0,9 0,3 2,1 4,9 5 3 11 6 ENE 1009,4 8 7 0,0
17.01.2019 10:00:00 0,0 -1,2 -0,3 0,2 2,1 4,9 5 3 8 5 ENE 1009,6 7 13 0,0
17.01.2019 09:00:00 -1,5 -2,9 -2,1 0,2 2,2 4,9 3 1 7 4 ENE 1010,1 6 24 0,0
17.01.2019 08:00:00 -2,6 -3,2 -3,6 0,2 2,3 4,9 4 2 11 6 NE 1010,4 7 0 0,0
17.01.2019 07:00:00 -3,3 -4,0 -4,8 0,3 2,3 4,9 0 0 9 5 N 1010,6 6 0 0,0
17.01.2019 06:00:00 -3,0 -3,5 -5,5 0,4 2,4 4,9 1 0 6 3 SSE 1010,8 5 0 0,0
17.01.2019 05:00:00 -3,6 -4,5 -5,0 0,5 2,4 4,9 1 1 7 4 WSW 1010,9 6 0 0,0
17.01.2019 04:00:00 -2,8 -3,4 -5,5 0,7 2,5 4,9 3 1 8 4 NE 1010,7 5 0 0,0
17.01.2019 03:00:00 -2,6 -3,2 -5,6 0,8 2,6 4,9 3 2 8 5 E 1010,8 5 0 0,0
17.01.2019 02:00:00 -2,4 -3,2 -4,8 0,9 2,6 4,9 4 2 9 5 ENE 1010,8 6 0 0,0
17.01.2019 01:00:00 -2,0 -2,6 -4,3 1,1 2,7 4,9 4 2 10 5 E 1011,3 4,9 0 0,0
17.01.2019 00:00:00 -1,7 -2,2 -3,3 1,2 2,7 4,9 3 2 6 4 ENE 1011,7 5 0 0,0
16.01.2019 23:00:00 -1,5 -2,3 -3,6 1,3 2,8 4,9 2 1 6 3 ENE 1012,1 7 0 0,0
16.01.2019 22:00:00 -1,4 -2,1 -3,1 1,5 2,9 4,9 3 1 5 3 SE 1012,5 8 0 0,0
16.01.2019 21:00:00 0,1 -1,5 -2,1 1,6 2,9 4,9 2 1 5 3 NNW 1012,4 16 0 0,0
16.01.2019 20:00:00 0,1 -1,6 -2,2 1,7 3,0 4,9 2 1 7 4 NE 1012,8 12 0 0,0
16.01.2019 19:00:00 0,5 -1,7 -1,8 2,0 3,0 4,9 2 1 8 4 NNE 1012,9 16 0 0,0
16.01.2019 18:00:00 1,6 -1,8 -1,5 2,6 3,0 4,9 2 1 7 4 ENE 1013,2 21 0 0,0
16.01.2019 17:00:00 3,5 -1,6 -0,2 3,7 2,9 4,9 6 3 16 9 SSW 1013,5 21 6 0,0
16.01.2019 16:00:00 4,7 -1,0 3,7 5,0 2,8 4,9 9 5 18 10 S 1013,4 32 54 0,0
16.01.2019 15:00:00 5,4 -0,7 6,7 5,4 2,6 4,9 8 5 18 10 S 1014,0 32 60 0,0
16.01.2019 14:00:00 4,9 -1,0 6,1 5,2 2,4 4,9 9 5 19 10 S 1014,8 32 60 0,0
16.01.2019 13:00:00 4,6 -1,1 5,9 4,7 2,3 4,9 10 5 20 11 SSW 1015,8 31 60 0,0
16.01.2019 12:00:00 4,1 -1,0 5,1 3,7 2,3 4,9 7 4 16 8 W 1016,9 32 60 0,0
16.01.2019 11:00:00 3,0 -1,3 3,5 2,4 2,3 4,9 8 4 20 11 SW 1017,9 22 58 0,0
16.01.2019 10:00:00 2,0 -1,9 1,8 1,6 2,3 4,9 11 6 22 12 SW 1018,7 23 8 0,0
16.01.2019 09:00:00 1,9 -1,5 1,3 1,3 2,3 4,9 8 4 18 10 SW 1018,5 20 0 0,0
16.01.2019 08:00:00 1,8 -1,7 0,6 1,4 2,3 4,9 9 5 21 11 SW 1018,5 21 0 0,0
16.01.2019 07:00:00 2,6 -1,5 1,7 1,6 2,3 4,9 10 5 29 16 SW 1018,5 24 0 0,0
16.01.2019 06:00:00 3,3 -1,2 2,4 1,6 2,3 4,9 15 8 32 17 WSW 1018,4 50 0 0,0
16.01.2019 05:00:00 3,2 -1,0 2,3 1,7 2,3 4,9 13 7 27 14 WSW 1018,6 35 0 0,0
16.01.2019 04:00:00 3,2 -0,8 2,2 1,7 2,3 4,9 13 7 30 16 WSW 1019,1 32 0 0,0
16.01.2019 03:00:00 3,3 -0,7 2,4 1,7 2,3 4,9 13 7 30 16 WSW 1019,5 40 0 0,0
16.01.2019 02:00:00 3,5 -1,0 2,5 1,7 2,3 4,9 11 6 26 14 WSW 1019,5 33 0 0,0
16.01.2019 01:00:00 3,6 -1,0 2,7 1,8 2,2 4,9 13 7 29 16 WSW 1019,8 40 0 0,0
16.01.2019 00:00:00 3,8 -0,8 2,7 1,8 2,2 4,9 12 6 26 14 WSW 1020,0 49 0 0,0
15.01.2019 23:00:00 3,8 -0,9 2,7 1,7 2,2 4,9 16 9 33 18 WSW 1020,3 42 0 0,0
15.01.2019 22:00:00 3,8 -0,9 2,7 1,7 2,2 4,9 15 8 36 19 WSW 1020,4 37 0 0,0
15.01.2019 21:00:00 3,5 -0,8 2,7 1,7 2,2 4,9 18 10 37 20 WSW 1020,2 29 0 0,0
15.01.2019 20:00:00 3,5 -0,8 2,5 1,7 2,2 4,9 19 10 36 20 WSW 1020,0 32 0 0,0
15.01.2019 19:00:00 3,2 -0,7 2,3 1,7 2,2 4,9 16 9 31 17 WSW 1020,1 38 0 0,0
15.01.2019 18:00:00 3,4 -0,8 2,4 1,8 2,1 4,9 14 8 34 18 WSW 1020,2 35 0 0,0
15.01.2019 17:00:00 3,4 -0,8 2,5 1,9 2,1 4,9 16 8 34 18 WSW 1020,3 43 0 0,0
15.01.2019 16:00:00 3,3 -1,0 2,7 2,1 2,0 4,9 16 9 33 18 WSW 1020,3 48 0 0,0
15.01.2019 15:00:00 3,4 -1,0 3,0 2,1 2,0 4,9 16 9 39 21 WSW 1020,3 59 0 0,0
15.01.2019 14:00:00 3,1 -1,3 2,7 1,8 2,0 4,9 19 10 45 25 WSW 1020,6 51 0 0,0
15.01.2019 13:00:00 2,8 -1,6 2,5 1,2 2,0 4,9 19 10 43 23 WSW 1021,1 54 0 0,0
15.01.2019 12:00:00 2,2 -1,8 1,7 1,0 2,0 4,9 18 10 39 21 WSW 1021,9 40 0 0,0
15.01.2019 11:00:00 1,8 -2,1 1,0 0,9 2,0 4,9 19 11 37 20 W 1022,6 38 0 0,0
15.01.2019 10:00:00 1,3 -2,2 0,7 0,8 2,0 4,9 17 9 36 19 W 1022,5 57 0 0,0
15.01.2019 09:00:00 1,1 -2,4 0,2 0,8 2,0 4,9 18 10 36 19 W 1022,1 47 0 0,0
15.01.2019 08:00:00 1,1 -2,4 0,2 0,8 2,0 4,9 16 9 37 20 W 1021,8 55 0 0,0
15.01.2019 07:00:00 1,1 -2,8 0,2 0,8 2,0 4,9 20 11 40 21 W 1021,3 45 0 0,0
15.01.2019 06:00:00 1,0 -2,7 0,2 0,8 2,1 4,9 16 9 37 20 W 1020,7 42 0 0,0
15.01.2019 05:00:00 1,0 -2,3 0,2 0,8 2,1 4,9 15 8 40 22 W 1019,8 41 0 0,0
15.01.2019 04:00:00 1,2 -2,5 0,2 0,8 2,1 4,9 16 9 31 17 W 1019,7 40 0 0,0
15.01.2019 03:00:00 0,8 -2,6 0,0 0,8 2,1 4,9 14 8 30 16 W 1019,4 55 0 0,0
15.01.2019 02:00:00 1,1 -3,6 0,2 0,8 2,2 4,9 17 9 40 22 W 1019,0 48 0 0,0
15.01.2019 01:00:00 0,9 -3,6 -0,3 0,9 2,2 4,9 20 11 44 24 WNW 1018,3 46 0 0,0
15.01.2019 00:00:00 1,1 -2,8 0,0 0,9 2,2 4,9 16 9 37 20 WNW 1017,9 46 0 0,0
14.01.2019 23:00:00 1,3 -2,0 0,4 0,9 2,3 4,9 16 8 28 15 WNW 1017,1 62 0 0,0
14.01.2019 22:00:00 1,5 -2,2 0,4 1,0 2,3 4,9 16 9 35 19 WNW 1016,6 45 0 0,0
14.01.2019 21:00:00 1,8 -2,4 0,9 1,0 2,4 4,9 21 11 49 26 WNW 1016,0 25 0 0,0
14.01.2019 20:00:00 2,0 -2,1 0,7 1,1 2,4 4,9 19 10 37 20 W 1014,5 66 0 0,0
14.01.2019 19:00:00 2,0 -2,1 0,9 1,1 2,4 4,9 13 7 30 16 W 1013,5 57 0 0,0
14.01.2019 18:00:00 2,1 -1,9 0,9 1,2 2,5 4,9 18 10 38 21 NW 1012,5 70 0 0,0
14.01.2019 17:00:00 1,8 -1,0 0,2 1,3 2,6 4,9 17 9 48 26 WNW 1011,0 70 0 0,0
14.01.2019 16:00:00 2,3 -0,3 1,2 1,5 2,6 4,9 15 8 29 16 WNW 1009,5 70 1 0,0
14.01.2019 15:00:00 2,0 -0,3 0,7 1,8 2,6 4,9 21 11 45 25 WNW 1008,8 29 0 0,0
14.01.2019 14:00:00 0,8 0,2 0,0 2,7 2,5 4,9 17 9 44 24 WNW 1008,9 3,5 0 2,4
14.01.2019 13:00:00 4,6 1,1 4,3 3,6 2,4 4,9 15 8 28 15 W 1007,9 45 5 0,0
14.01.2019 12:00:00 4,1 0,4 4,4 3,0 2,4 4,9 15 8 27 15 W 1008,3 57 1 0,0
14.01.2019 11:00:00 3,7 0,5 3,5 2,6 2,4 4,9 13 7 37 20 W 1008,6 70 0 0,0
14.01.2019 10:00:00 3,6 0,4 3,0 2,4 2,4 4,9 20 11 43 23 WNW 1007,8 70 0 0,0
14.01.2019 09:00:00 4,0 1,5 3,2 2,1 2,3 4,9 15 8 30 16 W 1006,5 70 18 0,0
14.01.2019 08:00:00 4,5 1,2 3,4 2,3 2,3 4,9 20 11 41 22 WNW 1005,2 55 0 0,1
14.01.2019 07:00:00 4,7 1,0 3,7 2,3 2,3 4,9 23 12 41 22 W 1004,1 68 0 0,0
14.01.2019 06:00:00 4,2 1,7 3,1 2,3 2,3 4,9 18 10 35 19 W 1003,3 51 0 0,0
14.01.2019 05:00:00 4,0 1,9 2,9 2,2 2,2 4,9 21 12 42 23 W 1002,3 60 0 0,0
14.01.2019 04:00:00 4,4 1,4 3,2 2,2 2,2 4,9 22 12 43 23 W 1001,7 70 0 0,0
14.01.2019 03:00:00 4,5 1,5 2,8 2,5 2,1 4,9 19 10 45 24 W 1001,2 66 0 0,0
14.01.2019 02:00:00 5,0 1,4 3,7 2,7 2,0 4,9 23 13 74 40 WNW 1000,6 70 0 0,6
14.01.2019 01:00:00 6,3 3,0 5,4 2,7 1,9 4,9 29 16 56 30 W 998,9 70 0 0,0
14.01.2019 00:00:00 5,3 3,4 4,3 2,6 1,8 4,9 21 12 46 25 W 998,7 70 0 0,2
13.01.2019 23:00:00 5,2 4,2 4,3 2,6 1,7 4,9 21 11 46 25 W 999,3 8 0 0,6
13.01.2019 22:00:00 5,2 3,7 4,2 2,2 1,6 4,9 26 14 53 28 WSW 999,5 12 0 0,0
13.01.2019 21:00:00 4,8 3,5 3,8 1,8 1,6 4,9 34 18 51 28 WSW 1000,2 11 0 0,0
13.01.2019 20:00:00 4,5 3,3 3,5 1,1 1,5 4,9 23 12 46 25 WSW 1001,3 13 0 0,1
13.01.2019 19:00:00 3,9 2,9 3,1 0,6 1,5 4,9 22 12 41 22 WSW 1002,1 10 0 0,0
13.01.2019 18:00:00 3,1 2,1 2,2 0,5 1,5 4,9 21 11 49 27 WSW 1003,1 11 0 0,5
13.01.2019 17:00:00 2,7 1,7 1,7 0,4 1,4 5,0 24 13 47 26 WSW 1004,2 12 0 0,7
13.01.2019 16:00:00 2,5 1,1 1,6 0,4 1,4 5,0 24 13 44 24 WSW 1005,1 24 0 0,8
13.01.2019 15:00:00 2,6 1,0 1,7 0,4 1,4 5,0 21 11 45 24 WSW 1006,4 19 0 0,5
13.01.2019 14:00:00 3,2 1,4 2,1 0,4 1,4 5,0 21 11 38 21 WSW 1007,4 14 0 0,2
13.01.2019 13:00:00 3,6 1,8 2,4 0,5 1,5 5,0 19 10 44 24 WSW 1008,8 17 0 0,4
13.01.2019 12:00:00 3,7 2,0 2,2 0,5 1,6 5,0 19 10 43 23 WSW 1010,0 19 0 0,0
13.01.2019 11:00:00 3,3 1,8 2,0 0,5 1,6 5,0 18 10 35 19 WSW 1011,2 27 0 0,0
13.01.2019 10:00:00 2,9 1,5 1,4 0,5 1,6 5,0 16 8 32 17 WSW 1012,3 22 0 0,0
13.01.2019 09:00:00 2,9 1,4 0,1 0,5 1,6 5,0 10 6 24 13 WSW 1012,6 26 0 0,0
13.01.2019 08:00:00 2,2 1,0 -0,1 0,5 1,6 5,0 13 7 28 15 WSW 1013,1 25 0 0,0
13.01.2019 07:00:00 2,3 1,0 -0,1 0,5 1,6 5,0 14 7 26 14 WSW 1013,2 36 0 0,0
13.01.2019 06:00:00 1,8 0,6 -0,1 0,5 1,6 5,0 14 7 32 17 WSW 1013,3 36 0 0,0
13.01.2019 05:00:00 1,5 0,5 -0,1 0,5 1,6 5,1 18 10 34 18 WSW 1013,2 70 0 0,0
13.01.2019 04:00:00 1,4 0,5 -0,1 0,5 1,6 5,1 16 8 32 17 WSW 1013,4 32 0 0,4
13.01.2019 03:00:00 1,1 0,4 -0,1 0,5 1,6 5,1 19 10 40 22 WSW 1013,3 9 0 0,7
13.01.2019 02:00:00 1,2 0,4 -0,1 0,5 1,6 5,1 20 11 38 21 WSW 1013,2 7 0 0,3
13.01.2019 01:00:00 1,1 0,4 -0,1 0,5 1,6 5,1 19 10 41 22 WSW 1013,4 8 0 0,6
13.01.2019 00:00:00 1,3 0,4 -0,1 0,5 1,6 5,1 22 12 43 23 WSW 1013,9 12 0 0,8
12.01.2019 23:00:00 1,1 0,4 -0,1 0,5 1,7 5,1 22 12 42 23 WSW 1014,8 7 0 0,8
12.01.2019 22:00:00 1,5 0,5 -0,1 0,5 1,7 5,1 22 12 46 25 WSW 1015,2 11 0 0,5
12.01.2019 21:00:00 1,8 0,4 -0,1 0,6 1,7 5,1 20 11 39 21 WSW 1015,8 14 0 0,4
12.01.2019 20:00:00 1,8 0,7 -0,1 0,6 1,7 5,1 22 12 44 24 WSW 1017,0 9 0 0,6
12.01.2019 19:00:00 2,3 -0,3 -0,1 0,6 1,7 5,1 17 9 38 20 WSW 1017,9 12 0 0,0
12.01.2019 18:00:00 2,8 -0,5 -0,1 0,6 1,7 5,1 15 8 37 20 WSW 1018,2 24 0 0,0
12.01.2019 17:00:00 2,3 0,0 -0,1 0,6 1,7 5,1 14 8 35 19 WSW 1019,1 22 0 0,0
12.01.2019 16:00:00 2,2 0,2 -0,1 0,6 1,7 5,1 18 10 31 17 WSW 1020,2 18 0 0,0
12.01.2019 15:00:00 2,3 0,0 -0,1 0,6 1,7 5,1 18 10 36 20 WSW 1020,5 18 0 0,0
12.01.2019 14:00:00 2,1 0,0 -0,1 0,6 1,7 5,1 18 10 35 19 WSW 1021,2 19 0 0,0
12.01.2019 13:00:00 2,2 0,0 -0,1 0,6 1,7 5,1 17 9 34 18 WSW 1021,9 17 0 0,0
12.01.2019 12:00:00 1,8 0,0 -0,1 0,6 1,7 5,1 18 10 34 19 WSW 1022,8 16 0 0,0

tt = Température de l'air
td = dewpoint
tt 5cm = Température de l'air 5cm
tt -5cm = Température de l'air -5cm
tt -20cm = Température de l'air -20cm
tt -100cm = Température de l'air -100cm
ff = Vitesse du vent
fx = gusts
dd = Direction du vent
ppp = reduced air pressure
vv = visibility
sd = Ensoleillement
rr = Quantités de précipitations

stations d'obs. à proximité